Location: Saginaw
(43.4195°N, 83.9508°W)
Time: 20:01:04
(UTC-04:00)

Daily predictions for brighter satellites

Satellite Brightness Start Highest point End
(mag) Time Altitude Azimuth Time Altitude Azimuth Time Altitude Azimuth
Cosmos 2333 Rocket 3.0 19:41:56 10° SW 19:47:37 59° WNW 19:53:20 10° NNE
IDEFIX/ARIANE 42P 3.7 19:42:52 10° S 19:47:56 50° W 19:53:03 10° NNW
Cosmos 292 Rocket 4.0 19:44:02 10° SSW 19:48:49 78° WNW 19:53:41 10° NNE
Timation 1 Rocket 4.4 19:44:35 10° NNW 19:50:30 60° ENE 19:56:23 10° SE
NOAA 12 4.2 19:47:18 10° SSE 19:52:25 55° ENE 19:57:35 10° N
Cosmos 1758 4.5 19:50:33 10° SE 19:53:47 23° E 19:57:02 10° NE
HJ-1C 4.4 19:52:28 10° SE 19:55:21 27° ENE 19:58:16 10° N
Cosmos 1624 Rocket 4.2 19:51:12 10° NNW 19:56:26 80° WSW 20:01:37 10° SSE
USA 215 3.7 19:50:38 10° ENE 19:56:45 41° SE 20:02:48 10° SSW
OAO 3 Rocket 4.5 19:54:19 10° SW 19:58:22 28° S 20:02:30 10° ESE
Aureole 2 Rocket 2.9 19:55:43 10° S 20:00:04 70° ESE 20:04:21 10° NNE
Cosmos 1484 Rocket 3.4 19:58:04 10° S 20:01:51 61° W 20:05:44 10° NNW
SAR-Lupe-1 4.0 19:59:11 10° SSE 20:02:44 78° ENE 20:06:19 10° N
SL-19 R/B 4.5 19:57:42 10° SSE 20:03:20 84° WSW 20:09:20 10° NNW
Cosmos 1766 Rocket 3.9 19:59:21 10° N 20:03:31 41° ENE 20:07:37 10° SSE
CZ-4C R/B 3.2 20:02:53 10° WSW 20:08:08 50° NW 20:14:04 10° NNE
ALOS 3.2 20:05:40 10° SE 20:09:38 28° ENE 20:13:37 10° N
Cosmos 2237 Rocket 3.4 20:05:30 10° SW 20:10:57 46° WNW 20:16:25 10° NNE
Cosmos 2034 Rocket 4.2 20:05:29 10° SSE 20:11:26 48° E 20:17:28 10° NNE
Helios 1B rocket 2.9 20:07:49 10° NNE 20:11:39 37° E 20:15:29 10° SSE
Meteor 1-29 3.9 20:09:07 10° NE 20:12:11 28° E 20:15:14 10° SSE
ATLAS 3B R/B 4.4 20:05:46 10° WSW 20:12:40 36° NW 20:19:20 10° NNE
Cosmos 1464 Rocket 4.0 20:07:04 10° S 20:13:14 66° E 20:19:22 10° NNE
ATLAS 5 CENTAUR R/B 2.0 20:09:57 10° SSW 20:14:33 50° ESE 20:19:31 10° NE
Cosmos 1076 Rocket 3.5 20:10:33 10° N 20:14:51 67° E 20:19:11 10° SSE
SeaSat 1 3.9 20:14:05 10° ENE 20:16:54 15° ESE 20:19:42 10° SE
Cosmos 1766 3.5 20:18:07 10° SSW 20:22:04 76° W 20:26:05 10° N
Cosmos-2242 3.4 20:18:01 10° SSE 20:22:08 43° E 20:26:18 10° NNE
CZ-4B DEB 3.7 20:23:55 17° ESE 20:25:44 30° ENE 20:28:38 10° N
Cosmos 1452 Rocket 3.4 20:20:37 10° NNW 20:25:54 74° ENE 20:31:08 10° SSE
SL-16 R/B 2.6 20:25:18 10° SSW 20:30:57 70° WNW 20:36:40 10° NNE
NOSS 3-2 (A) 3.6 20:25:07 10° SW 20:31:13 83° NW 20:37:55 10° NE
FREGAT/IRIS 3.4 20:28:35 10° S 20:31:37 55° W 20:34:41 10° NNW
ATLAS CENTAUR R/B 4.0 20:29:36 10° WNW 20:32:39 20° WSW 20:35:31 10° SSW
CZ-2D R/B 3.9 20:33:52 20° SE 20:36:05 36° ENE 20:39:41 10° N
Cosmos 1500 Rocket 4.2 20:33:07 10° N 20:37:11 34° ENE 20:39:25 21° SE
Cosmos 1408 Rocket 3.6 20:32:57 10° N 20:37:20 79° W 20:41:39 10° S
Cosmos 1842 Rocket 4.3 20:33:37 10° SSE 20:37:23 30° E 20:41:12 10° NNE
SL-8 R/B 4.4 20:35:59 10° SSW 20:40:16 34° SE 20:42:04 25° E
TELKOM 3 3.5 20:38:35 10° NW 20:41:15 45° NNE 20:41:32 42° NE
Cosmos 1544 3.2 20:38:53 10° S 20:42:31 53° E 20:46:12 10° NNE
METEOR-M 4.4 20:37:26 10° S 20:42:46 72° WSW 20:48:08 10° NNW
Cosmos 468 4.5 20:38:44 10° S 20:43:54 62° ESE 20:49:04 10° NNE
Gbstr 26 Del rocket 4.5 20:42:37 10° S 20:45:51 22° SE 20:45:51 22° SE
Cosmos 1953 2.3 20:43:39 10° S 20:47:38 85° W 20:51:38 10° N
Cosmos 1420 Rocket 4.0 20:42:43 10° NNW 20:48:00 65° ENE 20:52:00 18° SSE
H-2A R/B 2.8 20:50:10 27° SE 20:52:03 55° ENE 20:55:52 10° N
Cosmos 1805 3.4 20:48:29 10° SSW 20:52:25 75° W 20:56:22 10° N
FENGYUN 3A 3.6 20:48:40 10° SSE 20:54:00 74° ENE 20:59:24 10° N
Resurs 1-3 3.8 20:51:15 10° S 20:55:37 72° WSW 21:00:01 10° NNW
Resurs 01 Rocket 2.4 20:52:10 10° S 20:56:32 54° W 21:00:54 10° NNW
ASTEX 1 3.3 20:52:47 10° NNE 20:57:41 62° E 21:02:30 10° S
Cosmos 1346 3.2 20:57:30 10° NNW 21:00:29 72° W 21:01:23 40° S
Abrixas 4.0 20:58:22 10° SSW 21:00:02 25° S 21:00:02 25° S
Spot 2 Rocket 4.4 21:00:23 10° S 21:05:14 48° W 21:10:07 10° NNW
CENTAUR R/B 2.8 21:00:04 10° S 21:05:37 40° ESE 21:11:49 10° NE
Cosmos 1743 Rocket 3.6 21:01:17 10° N 21:05:45 83° W 21:09:33 14° S
Cosmos 1269 Rocket 3.9 21:01:05 10° SSW 21:06:20 76° ESE 21:11:38 10° NNE
Helios 1A 4.1 21:03:22 10° S 21:07:23 44° W 21:11:27 10° NNW
Cosmos 1048 Rocket 3.9 21:02:59 10° S 21:08:14 67° ESE 21:13:27 10° NNE
NOSS 3-2 (C) 4.0 21:03:36 10° SW 21:09:39 61° NW 21:16:20 10° NNE
Cosmos 2369 Rocket 2.3 21:07:10 10° NNW 21:12:44 55° ENE 21:14:17 42° ESE
Cosmos 1943 3.4 21:08:52 10° S 21:14:12 46° ESE 21:19:33 10° NE
Cosmos 1470 2.5 21:13:51 47° S 21:14:52 77° E 21:18:46 10° NNE
Envisat 3.7 21:16:19 35° ENE 21:16:19 35° ENE 21:20:40 10° N
Cosmos 1943 Rocket 3.2 21:11:36 10° N 21:16:25 28° NE 21:16:39 28° ENE
Cosmos 1603 3.9 21:12:34 10° SSW 21:18:18 76° WNW 21:24:05 10° NNE
Nadezhda 4 Rocket 4.3 21:14:07 10° NNW 21:20:21 69° W 21:26:31 10° S
GP-B 2.9 21:18:54 10° N 21:23:20 70° E 21:23:34 68° ESE
Cosmos 1733 3.9 21:24:29 44° NNE 21:24:29 44° NNE 21:27:14 10° N
Cosmos 1655 Rocket 4.1 21:19:31 10° N 21:25:34 50° ENE 21:26:29 47° ESE
Cosmos 1092 Rocket 4.0 21:21:10 10° N 21:27:24 83° W 21:32:26 16° S
Cosmos 2142 Rocket 4.4 21:27:31 10° S 21:33:52 76° E 21:40:17 10° N
Cosmos 1674 3.6 21:31:58 10° NNW 21:35:42 47° W 21:36:37 38° SW
ISS -0.4 21:33:05 10° SW 21:33:17 11° SW 21:33:17 11° SW
USA 215 3.6 21:33:35 10° NE 21:39:57 65° NNW 21:46:23 10° WSW
Cosmos 2026 Rocket 3.8 21:35:47 10° N 21:41:52 74° E 21:42:57 60° SE
Exosat Rocket 4.5 21:35:46 10° NNW 21:42:22 74° ENE 21:45:29 43° SE
Cosmos 1634 Rocket 3.9 21:37:13 10° S 21:43:28 87° W 21:49:43 10° N
H-2A R/B 4.0 21:48:55 20° NNE 21:48:55 20° NNE 21:50:37 10° N
ALOS 3.9 21:42:50 10° SSW 21:46:59 31° W 21:51:09 10° NNW
Meteor 1-11 4.1 21:41:32 10° N 21:47:22 76° E 21:47:39 74° ESE
Meteor 1-16 Rocket 4.3 21:50:29 58° NNE 21:50:29 58° NNE 21:54:48 10° NNE
ERS-1 Rocket 3.0 21:55:08 71° N 21:55:08 71° N 21:59:37 10° NNW
SeaSat 1 2.5 21:49:57 10° NNE 21:54:53 75° WNW 21:59:48 10° SW
Cosmos 1110 Rocket 4.1 21:53:57 10° NNW 21:58:36 68° N 21:58:36 68° N
ATLAS 5 CENTAUR R/B 3.8 21:55:15 10° W 21:59:30 28° NW 22:04:06 10° NNE
Cosmos 2151 4.5 22:07:01 10° NNW 22:09:57 34° WNW 22:09:57 34° WNW
CENTAUR R/B 3.5 22:50:16 10° WSW 22:56:13 44° NW 23:02:54 10° NNE
Cosmos 2369 Rocket 4.1 22:52:01 10° NW 22:56:06 23° W 22:56:06 23° W
H-2A R/B 4.5 23:03:03 15° N 23:03:03 15° N 23:03:57 10° N
Cosmos 1943 Rocket 3.7 22:55:01 10° NW 22:58:11 31° NW 22:58:11 31° NW
